Weather History for KUZA - September, 2013

Change the Weather History Date:

Saturday, September 21, 2013

  Actual Average Record
Temperature  
Mean Temperature 72 °F -  
Max Temperature 77 °F 82 °F 95 °F (1955)
Min Temperature 66 °F 63 °F 49 °F (1949)
Cooling Degree Days 6    
Growing Degree Days 22 (Base 50)    
Moisture  
Dew Point 68 °F    
Average Humidity 93    
Maximum Humidity 100    
Minimum Humidity 74    
Precipitation  
Precipitation 0.81 in - - ()
Sea Level Pressure  
Sea Level Pressure 29.77 in    
Wind  
Wind Speed 5 mph (South)    
Max Wind Speed 16 mph    
Max Gust Speed 24 mph    
Visibility 6 miles    
Events Rain    
Averages and records for this station are not official NWS values.
T = Trace of Precipitation, MM = Missing Value Source: NWS Daily Summary

Daily Weather History Graph

Daily Weather History Graph

Search for Another Location

Airport or City:

Trip Planner

Search our weather history database for the weather conditions in past years. The results will help you decide how hot, cold, wet, or windy it might be!

Date:

Astronomy

Sep. 21, 2013 Rise Set
Actual Time 7:11 AM EDT 7:22 PM EDT
Civil Twilight 6:46 AM EDT 7:47 PM EDT
Nautical Twilight 6:16 AM EDT 8:16 PM EDT
Astronomical Twilight 5:46 AM EDT 8:46 PM EDT
Moon 8:39 PM EDT (9/21) 9:21 AM EDT (9/21)
Length of Visible Light 13h 00m
Length of Day
12h 10m
Waning Gibbous, 94% of the Moon is Illuminated
Sep 21
Waning Gibbous
Sep 26
Last Quarter
Oct 4
New
Oct 11
First Quarter
Oct 18
Full

Hourly Weather History & Observations

Time (EDT) Temp. Dew Point Humidity Pressure Visibility Wind Dir Wind Speed Gust Speed Precip Events Conditions
12:54 AM 68.0 °F 66.0 °F 93% 29.92 in 9.0 mi SSW 5.8 mph - N/A   Clear
1:54 AM 69.1 °F 66.0 °F 90% 29.92 in 9.0 mi South 3.5 mph - N/A   Clear
2:54 AM 68.0 °F 66.0 °F 93% 29.91 in 8.0 mi SSW 4.6 mph - N/A   Mostly Cloudy
3:54 AM 66.9 °F 66.0 °F 97% 29.89 in 7.0 mi SSW 4.6 mph - N/A   Clear
4:54 AM 66.9 °F 66.0 °F 97% 29.87 in 6.0 mi SSW 3.5 mph - N/A   Partly Cloudy
5:54 AM 66.0 °F 64.9 °F 96% 29.86 in 5.0 mi Calm Calm - N/A   Clear
6:54 AM 66.0 °F 66.0 °F 100% 29.86 in 6.0 mi SSW 4.6 mph - N/A   Clear
7:54 AM 66.9 °F 66.0 °F 97% 29.87 in 5.0 mi SSW 4.6 mph - N/A   Clear
8:54 AM 69.1 °F 66.0 °F 90% 29.88 in 8.0 mi SSW 8.1 mph - N/A   Clear
9:54 AM 72.0 °F 66.9 °F 84% 29.87 in 10.0 mi SW 8.1 mph - N/A   Clear
10:54 AM 73.0 °F 66.0 °F 79% 29.87 in 10.0 mi SSW 8.1 mph - N/A   Clear
11:54 AM 75.0 °F 66.9 °F 76% 29.84 in 10.0 mi SSW 6.9 mph - N/A   Partly Cloudy
12:54 PM 77.0 °F 68.0 °F 74% 29.83 in 10.0 mi SW 8.1 mph - 0.00 in Rain Light Rain
1:54 PM 75.9 °F 69.1 °F 79% 29.80 in 10.0 mi SSW 9.2 mph - 0.00 in Rain Light Rain
2:54 PM 75.0 °F 70.0 °F 84% 29.77 in 8.0 mi South 6.9 mph - 0.00 in Rain Light Rain
3:54 PM 73.9 °F 69.1 °F 85% 29.75 in 9.0 mi South 5.8 mph - 0.01 in Rain Light Rain
4:54 PM 73.0 °F 70.0 °F 90% 29.74 in 8.0 mi Variable 3.5 mph - 0.00 in Rain Light Rain
5:54 PM 73.0 °F 70.0 °F 90% 29.72 in 6.0 mi Variable 3.5 mph - 0.00 in Rain Light Rain
6:54 PM 72.0 °F 70.0 °F 93% 29.70 in 3.0 mi Calm Calm - 0.03 in Rain Light Rain
7:54 PM 71.1 °F 70.0 °F 96% 29.69 in 2.0 mi Calm Calm - 0.05 in Rain Heavy Rain
8:13 PM 71.1 °F 70.0 °F 96% 29.71 in 3.0 mi Calm Calm - 0.02 in Rain Light Rain
8:54 PM 71.1 °F 70.0 °F 96% 29.68 in 5.0 mi ENE 3.5 mph - 0.03 in Rain Light Rain
9:13 PM 71.1 °F 70.0 °F 96% 29.72 in 3.0 mi NE 3.5 mph - 0.06 in Rain Rain
9:20 PM 70.0 °F 70.0 °F 100% 29.72 in 2.5 mi ENE 3.5 mph - 0.08 in Rain Rain
9:29 PM 70.0 °F 70.0 °F 100% 29.71 in 1.8 mi ESE 3.5 mph - 0.16 in Rain Heavy Rain
9:48 PM 69.8 °F 69.8 °F 100% 29.70 in 2.0 mi Variable 5.8 mph - 0.32 in Rain Heavy Rain
9:54 PM 69.1 °F 69.1 °F 100% 29.67 in 1.8 mi Variable 4.6 mph - 0.39 in Rain Heavy Rain
10:08 PM 69.1 °F 69.1 °F 100% 29.69 in 2.0 mi Variable 3.5 mph - 0.07 in Rain Heavy Rain
10:23 PM 69.1 °F 68.0 °F 96% 29.68 in 4.0 mi ESE 6.9 mph - 0.10 in Rain Light Rain
10:41 PM 69.1 °F 68.0 °F 96% 29.66 in 2.0 mi ESE 6.9 mph - 0.14 in Rain Heavy Rain
10:46 PM 69.1 °F 69.1 °F 100% 29.66 in 3.0 mi Variable 6.9 mph - 0.14 in Rain Light Rain
10:54 PM 69.1 °F 69.1 °F 100% 29.62 in 7.0 mi East 5.8 mph - 0.14 in Rain Light Rain
11:38 PM 69.1 °F 68.0 °F 96% 29.67 in 1.8 mi NNE 11.5 mph 24.2 mph 0.08 in Rain Heavy Rain
11:54 PM 66.9 °F 66.0 °F 97% 29.64 in 3.0 mi NNE 16.1 mph 24.2 mph 0.16 in Rain Rain